anno;DATA;ORA;velocit� del vento (in m/s);direzione del vento (gradi)
2013;01/01/2013;01:00;1.5;280
2013;01/01/2013;02:00;1.9;265
2013;01/01/2013;03:00;1.9;267
2013;01/01/2013;04:00;2;268
2013;01/01/2013;05:00;2.3;320
2013;01/01/2013;06:00;1.8;301
2013;01/01/2013;07:00;1.8;278
2013;01/01/2013;08:00;1.1;284
2013;01/01/2013;09:00;1.1;308
2013;01/01/2013;10:00;1.2;15
2013;01/01/2013;11:00;2.5;96
2013;01/01/2013;12:00;2.2;99
2013;01/01/2013;13:00;2.7;207
2013;01/01/2013;14:00;4.3;185
2013;01/01/2013;15:00;3.9;197
2013;01/01/2013;16:00;5.1;183
2013;01/01/2013;17:00;3.8;215
2013;01/01/2013;18:00;2.5;240
2013;01/01/2013;19:00;2.2;274
2013;01/01/2013;20:00;1.9;240
2013;01/01/2013;21:00;1.9;307
2013;01/01/2013;22:00;1.9;266
2013;01/01/2013;23:00;1.2;290
2013;02/01/2013;00:00;2;272
2013;02/01/2013;01:00;0.9;284
2013;02/01/2013;02:00;1.4;248
2013;02/01/2013;03:00;2.1;243
2013;02/01/2013;04:00;2.6;323
2013;02/01/2013;05:00;0.7;245
2013;02/01/2013;06:00;1;248
2013;02/01/2013;07:00;1.5;300
2013;02/01/2013;08:00;0.4;305
2013;02/01/2013;09:00;1.1;321
2013;02/01/2013;10:00;0.5;18
2013;02/01/2013;11:00;1.6;95
2013;02/01/2013;12:00;3.2;118
2013;02/01/2013;13:00;4.2;190
2013;02/01/2013;14:00;3.7;139
2013;02/01/2013;15:00;2.4;127
2013;02/01/2013;16:00;1.2;214
2013;02/01/2013;17:00;0.2;
2013;02/01/2013;18:00;1.6;169
2013;02/01/2013;19:00;0.9;286
2013;02/01/2013;20:00;1.4;317
2013;02/01/2013;21:00;1.4;328
2013;02/01/2013;22:00;0.8;303
2013;02/01/2013;23:00;1.4;318
2013;03/01/2013;00:00;0.2;323
2013;03/01/2013;01:00;0.6;207
2013;03/01/2013;02:00;2.6;315
2013;03/01/2013;03:00;1.6;286
2013;03/01/2013;04:00;1.5;309
2013;03/01/2013;05:00;1.6;300
2013;03/01/2013;06:00;1.6;309
2013;03/01/2013;07:00;2.4;300
2013;03/01/2013;08:00;2.5;301
2013;03/01/2013;09:00;1.2;323
2013;03/01/2013;10:00;1.9;331
2013;03/01/2013;11:00;4.2;353
2013;03/01/2013;12:00;8.4;14
2013;03/01/2013;13:00;9.7;7
2013;03/01/2013;14:00;8.2;355
2013;03/01/2013;15:00;4;347
2013;03/01/2013;16:00;4.1;342
2013;03/01/2013;17:00;3.7;333
2013;03/01/2013;18:00;4.3;337
2013;03/01/2013;19:00;2.8;329
2013;03/01/2013;20:00;2.1;301
2013;03/01/2013;21:00;3.2;334
2013;03/01/2013;22:00;3;329
2013;03/01/2013;23:00;2.9;327
2013;04/01/2013;00:00;1.9;330
2013;04/01/2013;01:00;3;324
2013;04/01/2013;02:00;3.5;333
2013;04/01/2013;03:00;1.9;302
2013;04/01/2013;04:00;2.7;305
2013;04/01/2013;05:00;1.8;312
2013;04/01/2013;06:00;2;302
2013;04/01/2013;07:00;1.7;291
2013;04/01/2013;08:00;2.1;287
2013;04/01/2013;09:00;2.2;330
2013;04/01/2013;10:00;6;3
2013;04/01/2013;11:00;6.5;23
2013;04/01/2013;12:00;10.2;12
2013;04/01/2013;13:00;8.6;1
2013;04/01/2013;14:00;7.3;358
2013;04/01/2013;15:00;4.9;346
2013;04/01/2013;16:00;3.6;339
2013;04/01/2013;17:00;2.1;307
2013;04/01/2013;18:00;2.2;282
2013;04/01/2013;19:00;2.7;284
2013;04/01/2013;20:00;1.9;262
2013;04/01/2013;21:00;2.7;253
2013;04/01/2013;22:00;1.1;195
2013;04/01/2013;23:00;1.7;320
2013;05/01/2013;00:00;1.2;216
2013;05/01/2013;01:00;0.8;279
2013;05/01/2013;02:00;0.7;275
2013;05/01/2013;03:00;1.9;313
2013;05/01/2013;04:00;1.5;306
2013;05/01/2013;05:00;1.8;320
2013;05/01/2013;06:00;1.9;293
2013;05/01/2013;07:00;1.3;307
2013;05/01/2013;08:00;0.5;265
2013;05/01/2013;09:00;0.4;326
2013;05/01/2013;10:00;1.1;188
2013;05/01/2013;11:00;0.8;175
2013;05/01/2013;12:00;1.2;228
2013;05/01/2013;13:00;1.1;248
2013;05/01/2013;14:00;2.3;63
2013;05/01/2013;15:00;1.1;72
2013;05/01/2013;16:00;0.9;166
2013;05/01/2013;17:00;1.2;298
2013;05/01/2013;18:00;1;251
2013;05/01/2013;19:00;1.4;280
2013;05/01/2013;20:00;3.9;326
2013;05/01/2013;21:00;3.8;316
2013;05/01/2013;22:00;3.4;329
2013;05/01/2013;23:00;5.4;333
2013;06/01/2013;00:00;4.4;324
2013;06/01/2013;01:00;9.6;338
2013;06/01/2013;02:00;10;339
2013;06/01/2013;03:00;10.9;345
2013;06/01/2013;04:00;11.2;344
2013;06/01/2013;05:00;9.8;337
2013;06/01/2013;06:00;8.8;336
2013;06/01/2013;07:00;9;334
2013;06/01/2013;08:00;9.5;345
2013;06/01/2013;09:00;11.2;347
2013;06/01/2013;10:00;12.1;345
2013;06/01/2013;11:00;14.9;353
2013;06/01/2013;12:00;14.3;352
2013;06/01/2013;13:00;12.9;352
2013;06/01/2013;14:00;10.3;350
2013;06/01/2013;15:00;7.3;352
2013;06/01/2013;16:00;6.7;343
2013;06/01/2013;17:00;4.2;340
2013;06/01/2013;18:00;3.1;329
2013;06/01/2013;19:00;2.7;317
2013;06/01/2013;20:00;1.5;283
2013;06/01/2013;21:00;2.3;309
2013;06/01/2013;22:00;1.5;253
2013;06/01/2013;23:00;1.4;245
2013;07/01/2013;00:00;2.5;242
2013;07/01/2013;01:00;0.4;330
2013;07/01/2013;02:00;2.2;321
2013;07/01/2013;03:00;2.2;323
2013;07/01/2013;04:00;1.7;264
2013;07/01/2013;05:00;0.7;282
2013;07/01/2013;06:00;2.6;299
2013;07/01/2013;07:00;1.9;265
2013;07/01/2013;08:00;1.3;263
2013;07/01/2013;09:00;7.6;6
2013;07/01/2013;10:00;9.3;348
2013;07/01/2013;11:00;8.5;343
2013;07/01/2013;12:00;9;342
2013;07/01/2013;13:00;9.1;349
2013;07/01/2013;14:00;7.1;345
2013;07/01/2013;15:00;6.3;343
2013;07/01/2013;16:00;6.5;338
2013;07/01/2013;17:00;6;340
2013;07/01/2013;18:00;8.4;352
2013;07/01/2013;19:00;9.4;347
2013;07/01/2013;20:00;11.1;351
2013;07/01/2013;21:00;9.8;347
2013;07/01/2013;22:00;11;350
2013;07/01/2013;23:00;13.5;10
2013;08/01/2013;00:00;14.1;6
2013;08/01/2013;01:00;13.2;357
2013;08/01/2013;02:00;11;350
2013;08/01/2013;03:00;11.8;353
2013;08/01/2013;04:00;11.8;353
2013;08/01/2013;05:00;12;356
2013;08/01/2013;06:00;8.3;348
2013;08/01/2013;07:00;10.1;347
2013;08/01/2013;08:00;11;352
2013;08/01/2013;09:00;11;353
2013;08/01/2013;10:00;11.8;358
2013;08/01/2013;11:00;10.9;
2013;08/01/2013;12:00;11.9;10
2013;08/01/2013;13:00;11.2;9
2013;08/01/2013;14:00;11.9;12
2013;08/01/2013;15:00;10.1;15
2013;08/01/2013;16:00;3.2;331
2013;08/01/2013;17:00;3;334
2013;08/01/2013;18:00;2.1;293
2013;08/01/2013;19:00;2;292
2013;08/01/2013;20:00;1.5;305
2013;08/01/2013;21:00;2.2;298
2013;08/01/2013;22:00;1.3;288
2013;08/01/2013;23:00;1.5;307
2013;09/01/2013;00:00;1.4;305
2013;09/01/2013;01:00;1.5;272
2013;09/01/2013;02:00;1.3;287
2013;09/01/2013;03:00;1.7;266
2013;09/01/2013;04:00;1.3;277
2013;09/01/2013;05:00;0.4;237
2013;09/01/2013;06:00;1.9;318
2013;09/01/2013;07:00;1.3;317
2013;09/01/2013;08:00;0.8;272
2013;09/01/2013;09:00;1.9;353
2013;09/01/2013;10:00;1.5;59
2013;09/01/2013;11:00;2.2;93
2013;09/01/2013;12:00;1.1;189
2013;09/01/2013;13:00;2;213
2013;09/01/2013;14:00;3.3;203
2013;09/01/2013;15:00;3.3;188
2013;09/01/2013;16:00;2.2;190
2013;09/01/2013;17:00;1;201
2013;09/01/2013;18:00;1.5;203
2013;09/01/2013;19:00;0.6;351
2013;09/01/2013;20:00;1.2;299
2013;09/01/2013;21:00;1.6;308
2013;09/01/2013;22:00;1.8;313
2013;09/01/2013;23:00;1.3;321
2013;10/01/2013;00:00;1.6;317
2013;10/01/2013;01:00;1.3;320
2013;10/01/2013;02:00;1.7;322
2013;10/01/2013;03:00;0.6;176
2013;10/01/2013;04:00;0.8;317
2013;10/01/2013;05:00;3.4;187
2013;10/01/2013;06:00;5.4;170
2013;10/01/2013;07:00;4.3;184
2013;10/01/2013;08:00;3.3;208
2013;10/01/2013;09:00;7;199
2013;10/01/2013;10:00;7.3;201
2013;10/01/2013;11:00;7.2;194
2013;10/01/2013;12:00;6.6;201
2013;10/01/2013;13:00;8.2;205
2013;10/01/2013;14:00;7.3;210
2013;10/01/2013;15:00;6.5;196
2013;10/01/2013;16:00;7.1;202
2013;10/01/2013;17:00;3.2;189
2013;10/01/2013;18:00;4.5;197
2013;10/01/2013;19:00;5;198
2013;10/01/2013;20:00;5.9;198
2013;10/01/2013;21:00;8.8;203
2013;10/01/2013;22:00;3.8;228
2013;10/01/2013;23:00;5.1;219
2013;11/01/2013;00:00;3.4;226
2013;11/01/2013;01:00;3;230
2013;11/01/2013;02:00;2.4;245
2013;11/01/2013;03:00;2.8;250
2013;11/01/2013;04:00;1.1;230
2013;11/01/2013;05:00;1.5;222
2013;11/01/2013;06:00;0.9;333
2013;11/01/2013;07:00;2.5;320
2013;11/01/2013;08:00;1.9;236
2013;11/01/2013;09:00;3.1;184
2013;11/01/2013;10:00;2.3;235
2013;11/01/2013;11:00;4;23
2013;11/01/2013;12:00;2.2;72
2013;11/01/2013;13:00;2.2;118
2013;11/01/2013;14:00;1.7;121
2013;11/01/2013;15:00;4.3;203
2013;11/01/2013;16:00;2.5;234
2013;11/01/2013;17:00;3.8;220
2013;11/01/2013;18:00;2.1;247
2013;11/01/2013;19:00;7.1;220
2013;11/01/2013;20:00;4.5;219
2013;11/01/2013;21:00;1.7;255
2013;11/01/2013;22:00;5.8;213
2013;11/01/2013;23:00;3.2;213
2013;12/01/2013;00:00;2.4;249
2013;12/01/2013;01:00;2.9;230
2013;12/01/2013;02:00;3.5;227
2013;12/01/2013;03:00;1.9;294
2013;12/01/2013;04:00;1.1;288
2013;12/01/2013;05:00;2;260
2013;12/01/2013;06:00;1.4;285
2013;12/01/2013;07:00;2;350
2013;12/01/2013;08:00;2.2;281
2013;12/01/2013;09:00;1.1;341
2013;12/01/2013;10:00;5.8;356
2013;12/01/2013;11:00;9.4;1
2013;12/01/2013;12:00;10.5;7
2013;12/01/2013;13:00;8.4;19
2013;12/01/2013;14:00;7.3;29
2013;12/01/2013;15:00;5.9;45
2013;12/01/2013;16:00;3.9;46
2013;12/01/2013;17:00;2.2;65
2013;12/01/2013;18:00;0.8;122
2013;12/01/2013;19:00;0.8;242
2013;12/01/2013;20:00;1.1;216
2013;12/01/2013;21:00;0.8;202
2013;12/01/2013;22:00;2.4;297
2013;12/01/2013;23:00;2.6;225
2013;13/01/2013;00:00;1.7;296
2013;13/01/2013;01:00;2.4;296
2013;13/01/2013;02:00;2.7;252
2013;13/01/2013;03:00;2.1;261
2013;13/01/2013;04:00;2.4;271
2013;13/01/2013;05:00;2;273
2013;13/01/2013;06:00;2.2;251
2013;13/01/2013;07:00;2.6;285
2013;13/01/2013;08:00;4.2;205
2013;13/01/2013;09:00;2.8;213
2013;13/01/2013;10:00;5.9;204
2013;13/01/2013;11:00;9.3;201
2013;13/01/2013;12:00;8.7;195
2013;13/01/2013;13:00;9.1;199
2013;13/01/2013;14:00;8;203
2013;13/01/2013;15:00;7.1;209
2013;13/01/2013;16:00;6.4;199
2013;13/01/2013;17:00;7;201
2013;13/01/2013;18:00;8.5;195
2013;13/01/2013;19:00;8.5;193
2013;13/01/2013;20:00;9.6;194
2013;13/01/2013;21:00;8.6;201
2013;13/01/2013;22:00;8.2;194
2013;13/01/2013;23:00;8.5;184
2013;14/01/2013;00:00;8;182
2013;14/01/2013;01:00;10.5;179
2013;14/01/2013;02:00;10.9;177
2013;14/01/2013;03:00;10;179
2013;14/01/2013;04:00;12.8;182
2013;14/01/2013;05:00;10.7;183
2013;14/01/2013;06:00;8.7;188
2013;14/01/2013;07:00;9.5;184
2013;14/01/2013;08:00;8.6;191
2013;14/01/2013;09:00;7.9;186
2013;14/01/2013;10:00;8.4;192
2013;14/01/2013;11:00;8.9;186
2013;14/01/2013;12:00;9;190
2013;14/01/2013;13:00;7.9;187
2013;14/01/2013;14:00;6.7;185
2013;14/01/2013;15:00;7.7;186
2013;14/01/2013;16:00;7;197
2013;14/01/2013;17:00;8.3;193
2013;14/01/2013;18:00;5.1;205
2013;14/01/2013;19:00;4.4;201
2013;14/01/2013;20:00;1.3;281
2013;14/01/2013;21:00;7.6;186
2013;14/01/2013;22:00;8.6;183
2013;14/01/2013;23:00;6.4;176
2013;15/01/2013;00:00;6.5;198
2013;15/01/2013;01:00;7.2;194
2013;15/01/2013;02:00;1.2;224
2013;15/01/2013;03:00;1.8;223
2013;15/01/2013;04:00;2.5;244
2013;15/01/2013;05:00;1.9;232
2013;15/01/2013;06:00;1.1;247
2013;15/01/2013;07:00;1;306
2013;15/01/2013;08:00;2.5;240
2013;15/01/2013;09:00;2.5;297
2013;15/01/2013;10:00;3.4;345
2013;15/01/2013;11:00;6.3;192
2013;15/01/2013;12:00;12.3;164
2013;15/01/2013;13:00;11.5;173
2013;15/01/2013;14:00;13.6;171
2013;15/01/2013;15:00;13.8;174
2013;15/01/2013;16:00;3.4;237
2013;15/01/2013;17:00;9.6;25
2013;15/01/2013;18:00;2.9;318
2013;15/01/2013;19:00;2.4;165
2013;15/01/2013;20:00;6.5;225
2013;15/01/2013;21:00;5.6;208
2013;15/01/2013;22:00;4.9;225
2013;15/01/2013;23:00;5.3;224
2013;16/01/2013;00:00;6.1;208
2013;16/01/2013;01:00;8;220
2013;16/01/2013;02:00;6.5;206
2013;16/01/2013;03:00;6.6;211
2013;16/01/2013;04:00;7.1;201
2013;16/01/2013;05:00;4.3;201
2013;16/01/2013;06:00;7.5;201
2013;16/01/2013;07:00;8.6;198
2013;16/01/2013;08:00;9.1;203
2013;16/01/2013;09:00;6.9;222
2013;16/01/2013;10:00;7.2;209
2013;16/01/2013;11:00;6.3;220
2013;16/01/2013;12:00;7.2;217
2013;16/01/2013;13:00;6.2;214
2013;16/01/2013;14:00;6.9;247
2013;16/01/2013;15:00;5.9;220
2013;16/01/2013;16:00;7;217
2013;16/01/2013;17:00;5.7;211
2013;16/01/2013;18:00;4.1;247
2013;16/01/2013;19:00;4.1;209
2013;16/01/2013;20:00;9.2;210
2013;16/01/2013;21:00;7;197
2013;16/01/2013;22:00;6.1;199
2013;16/01/2013;23:00;8.2;204
2013;17/01/2013;00:00;10.1;198
2013;17/01/2013;01:00;6.3;198
2013;17/01/2013;02:00;2.7;209
2013;17/01/2013;03:00;8.4;199
2013;17/01/2013;04:00;5.1;203
2013;17/01/2013;05:00;6.7;213
2013;17/01/2013;06:00;8.2;196
2013;17/01/2013;07:00;5.7;171
2013;17/01/2013;08:00;8.6;192
2013;17/01/2013;09:00;7.6;203
2013;17/01/2013;10:00;8.8;201
2013;17/01/2013;11:00;6.9;194
2013;17/01/2013;12:00;8.3;199
2013;17/01/2013;13:00;10.2;193
2013;17/01/2013;14:00;8.6;196
2013;17/01/2013;15:00;8.7;198
2013;17/01/2013;16:00;4.4;205
2013;17/01/2013;17:00;5.8;213
2013;17/01/2013;18:00;6.1;220
2013;17/01/2013;19:00;5.3;218
2013;17/01/2013;20:00;7.6;224
2013;17/01/2013;21:00;7.8;217
2013;17/01/2013;22:00;3.6;220
2013;17/01/2013;23:00;6.4;231
2013;18/01/2013;00:00;7;221
2013;18/01/2013;01:00;5;217
2013;18/01/2013;02:00;3.7;215
2013;18/01/2013;03:00;5.6;216
2013;18/01/2013;04:00;5.9;227
2013;18/01/2013;05:00;7.5;214
2013;18/01/2013;06:00;6.6;218
2013;18/01/2013;07:00;6.7;219
2013;18/01/2013;08:00;4.8;223
2013;18/01/2013;09:00;6.2;213
2013;18/01/2013;10:00;6.9;216
2013;18/01/2013;11:00;8.2;215
2013;18/01/2013;12:00;8.9;216
2013;18/01/2013;13:00;3.9;240
2013;18/01/2013;14:00;4.9;203
2013;18/01/2013;15:00;3.5;231
2013;18/01/2013;16:00;1.9;245
2013;18/01/2013;17:00;2.2;199
2013;18/01/2013;18:00;1.5;227
2013;18/01/2013;19:00;1;168
2013;18/01/2013;20:00;3.4;342
2013;18/01/2013;21:00;1.6;235
2013;18/01/2013;22:00;2.8;228
2013;18/01/2013;23:00;3.4;233
2013;19/01/2013;00:00;3.3;232
2013;19/01/2013;01:00;2.7;221
2013;19/01/2013;02:00;2.9;253
2013;19/01/2013;03:00;0.5;281
2013;19/01/2013;04:00;1.1;293
2013;19/01/2013;05:00;1.7;311
2013;19/01/2013;06:00;3.4;315
2013;19/01/2013;07:00;2.2;302
2013;19/01/2013;08:00;0.7;183
2013;19/01/2013;09:00;2.9;210
2013;19/01/2013;10:00;3.4;185
2013;19/01/2013;11:00;4.8;207
2013;19/01/2013;12:00;6;204
2013;19/01/2013;13:00;7.9;210
2013;19/01/2013;14:00;6.8;199
2013;19/01/2013;15:00;6.4;192
2013;19/01/2013;16:00;6.9;190
2013;19/01/2013;17:00;6.2;194
2013;19/01/2013;18:00;4.6;191
2013;19/01/2013;19:00;6.1;188
2013;19/01/2013;20:00;3.8;202
2013;19/01/2013;21:00;5.7;196
2013;19/01/2013;22:00;3.1;209
2013;19/01/2013;23:00;5.5;208
2013;20/01/2013;00:00;7;211
2013;20/01/2013;01:00;6.4;209
2013;20/01/2013;02:00;5.5;206
2013;20/01/2013;03:00;5.1;202
2013;20/01/2013;04:00;5.9;202
2013;20/01/2013;05:00;6.2;200
2013;20/01/2013;06:00;7.1;198
2013;20/01/2013;07:00;8.6;202
2013;20/01/2013;08:00;7;204
2013;20/01/2013;09:00;8.3;213
2013;20/01/2013;10:00;8.8;203
2013;20/01/2013;11:00;11.2;201
2013;20/01/2013;12:00;9.1;201
2013;20/01/2013;13:00;9.1;197
2013;20/01/2013;14:00;9.8;203
2013;20/01/2013;15:00;7.8;200
2013;20/01/2013;16:00;6;178
2013;20/01/2013;17:00;3.7;186
2013;20/01/2013;18:00;4.4;193
2013;20/01/2013;19:00;7.5;193
2013;20/01/2013;20:00;10.1;187
2013;20/01/2013;21:00;11;189
2013;20/01/2013;22:00;12;175
2013;20/01/2013;23:00;8.6;172
2013;21/01/2013;00:00;4.3;160
2013;21/01/2013;01:00;3.3;163
2013;21/01/2013;02:00;4.6;164
2013;21/01/2013;03:00;7.2;169
2013;21/01/2013;04:00;10.2;159
2013;21/01/2013;05:00;12.1;159
2013;21/01/2013;06:00;9.3;195
2013;21/01/2013;07:00;9.7;202
2013;21/01/2013;08:00;9.3;204
2013;21/01/2013;09:00;10;193
2013;21/01/2013;10:00;10.1;203
2013;21/01/2013;11:00;6.6;212
2013;21/01/2013;12:00;8;217
2013;21/01/2013;13:00;9.5;203
2013;21/01/2013;14:00;6.9;212
2013;21/01/2013;15:00;4.7;223
2013;21/01/2013;16:00;2.2;222
2013;21/01/2013;17:00;1.3;337
2013;21/01/2013;18:00;9.7;209
2013;21/01/2013;19:00;10;208
2013;21/01/2013;20:00;6.9;203
2013;21/01/2013;21:00;7.8;205
2013;21/01/2013;22:00;12.3;202
2013;21/01/2013;23:00;9;206
2013;22/01/2013;00:00;5.3;196
2013;22/01/2013;01:00;6.5;211
2013;22/01/2013;02:00;9.5;209
2013;22/01/2013;03:00;4.4;200
2013;22/01/2013;04:00;4.2;201
2013;22/01/2013;05:00;4.1;201
2013;22/01/2013;06:00;2.3;213
2013;22/01/2013;07:00;4.4;227
2013;22/01/2013;08:00;2.4;279
2013;22/01/2013;09:00;3;216
2013;22/01/2013;10:00;4.6;212
2013;22/01/2013;11:00;3.8;237
2013;22/01/2013;12:00;6.3;220
2013;22/01/2013;13:00;2.7;287
2013;22/01/2013;14:00;3.1;238
2013;22/01/2013;15:00;4.6;222
2013;22/01/2013;16:00;5.6;215
2013;22/01/2013;17:00;3;242
2013;22/01/2013;18:00;2.6;231
2013;22/01/2013;19:00;2.6;242
2013;22/01/2013;20:00;2.6;226
2013;22/01/2013;21:00;4.7;218
2013;22/01/2013;22:00;3.4;229
2013;22/01/2013;23:00;3.1;224
2013;23/01/2013;00:00;3.6;214
2013;23/01/2013;01:00;2.9;227
2013;23/01/2013;02:00;1.5;258
2013;23/01/2013;03:00;2.8;240
2013;23/01/2013;04:00;2;310
2013;23/01/2013;05:00;2;272
2013;23/01/2013;06:00;2.7;250
2013;23/01/2013;07:00;2.8;228
2013;23/01/2013;08:00;5.3;217
2013;23/01/2013;09:00;6;195
2013;23/01/2013;10:00;4.1;211
2013;23/01/2013;11:00;7;197
2013;23/01/2013;12:00;6.6;203
2013;23/01/2013;13:00;6.3;191
2013;23/01/2013;14:00;7.6;186
2013;23/01/2013;15:00;8.8;189
2013;23/01/2013;16:00;8.3;187
2013;23/01/2013;17:00;7.9;179
2013;23/01/2013;18:00;10.3;175
2013;23/01/2013;19:00;10.6;166
2013;23/01/2013;20:00;12.1;173
2013;23/01/2013;21:00;12.8;177
2013;23/01/2013;22:00;10.4;189
2013;23/01/2013;23:00;10.8;193
2013;24/01/2013;00:00;10;195
2013;24/01/2013;01:00;8.2;189
2013;24/01/2013;02:00;8.6;175
2013;24/01/2013;03:00;5.7;208
2013;24/01/2013;04:00;3.4;213
2013;24/01/2013;05:00;3.5;208
2013;24/01/2013;06:00;4.9;216
2013;24/01/2013;07:00;5;231
2013;24/01/2013;08:00;7.6;214
2013;24/01/2013;09:00;7.8;217
2013;24/01/2013;10:00;5.4;219
2013;24/01/2013;11:00;7.8;202
2013;24/01/2013;12:00;6.3;206
2013;24/01/2013;13:00;8.2;197
2013;24/01/2013;14:00;7.3;190
2013;24/01/2013;15:00;8.1;182
2013;24/01/2013;16:00;6.8;209
2013;24/01/2013;17:00;7.4;220
2013;24/01/2013;18:00;9.5;214
2013;24/01/2013;19:00;10.6;215
2013;24/01/2013;20:00;5.8;220
2013;24/01/2013;21:00;7.4;199
2013;24/01/2013;22:00;5.4;211
2013;24/01/2013;23:00;5.7;215
2013;25/01/2013;00:00;9.7;194
2013;25/01/2013;01:00;4.7;208
2013;25/01/2013;02:00;2.4;231
2013;25/01/2013;03:00;4.8;183
2013;25/01/2013;04:00;1.3;289
2013;25/01/2013;05:00;2.5;309
2013;25/01/2013;06:00;1.9;303
2013;25/01/2013;07:00;2.2;294
2013;25/01/2013;08:00;2.6;302
2013;25/01/2013;09:00;3.1;336
2013;25/01/2013;10:00;4.6;335
2013;25/01/2013;11:00;5.7;341
2013;25/01/2013;12:00;5.7;350
2013;25/01/2013;13:00;8.8;354
2013;25/01/2013;14:00;4.4;323
2013;25/01/2013;15:00;4.3;294
2013;25/01/2013;16:00;12.6;353
2013;25/01/2013;17:00;8.6;339
2013;25/01/2013;18:00;9.5;338
2013;25/01/2013;19:00;9.7;338
2013;25/01/2013;20:00;9.2;341
2013;25/01/2013;21:00;9.6;338
2013;25/01/2013;22:00;9.2;342
2013;25/01/2013;23:00;9.8;338
2013;26/01/2013;00:00;10.7;336
2013;26/01/2013;01:00;9.9;333
2013;26/01/2013;02:00;11;337
2013;26/01/2013;03:00;11.3;335
2013;26/01/2013;04:00;10.8;343
2013;26/01/2013;05:00;8.9;341
2013;26/01/2013;06:00;9.4;339
2013;26/01/2013;07:00;8.1;336
2013;26/01/2013;08:00;8.7;345
2013;26/01/2013;09:00;8.4;345
2013;26/01/2013;10:00;8.3;336
2013;26/01/2013;11:00;8.9;338
2013;26/01/2013;12:00;9.1;349
2013;26/01/2013;13:00;9.2;355
2013;26/01/2013;14:00;9.4;352
2013;26/01/2013;15:00;9.4;354
2013;26/01/2013;16:00;7.9;346
2013;26/01/2013;17:00;6.8;339
2013;26/01/2013;18:00;7.4;335
2013;26/01/2013;19:00;6;330
2013;26/01/2013;20:00;5.3;335
2013;26/01/2013;21:00;4.6;336
2013;26/01/2013;22:00;4.1;339
2013;26/01/2013;23:00;4.8;351
2013;27/01/2013;00:00;2.4;322
2013;27/01/2013;01:00;4.4;338
2013;27/01/2013;02:00;2.3;279
2013;27/01/2013;03:00;2.3;307
2013;27/01/2013;04:00;2.7;310
2013;27/01/2013;05:00;2.3;280
2013;27/01/2013;06:00;1.9;275
2013;27/01/2013;07:00;2;313
2013;27/01/2013;08:00;2.6;324
2013;27/01/2013;09:00;4.6;340
2013;27/01/2013;10:00;10.3;359
2013;27/01/2013;11:00;6;351
2013;27/01/2013;12:00;8;6
2013;27/01/2013;13:00;9.3;11
2013;27/01/2013;14:00;8.7;
2013;27/01/2013;15:00;8.4;4
2013;27/01/2013;16:00;4.6;351
2013;27/01/2013;17:00;2.2;324
2013;27/01/2013;18:00;1.8;279
2013;27/01/2013;19:00;1.7;275
2013;27/01/2013;20:00;1.8;253
2013;27/01/2013;21:00;2;266
2013;27/01/2013;22:00;1.4;258
2013;27/01/2013;23:00;2.5;247
2013;28/01/2013;00:00;0.4;295
2013;28/01/2013;01:00;2.8;316
2013;28/01/2013;02:00;1.1;300
2013;28/01/2013;03:00;2.2;264
2013;28/01/2013;04:00;1.3;306
2013;28/01/2013;05:00;2.2;323
2013;28/01/2013;06:00;1.2;306
2013;28/01/2013;07:00;0.9;275
2013;28/01/2013;08:00;0.9;274
2013;28/01/2013;09:00;0.5;140
2013;28/01/2013;10:00;1.8;172
2013;28/01/2013;11:00;2.1;231
2013;28/01/2013;12:00;2.7;221
2013;28/01/2013;13:00;3.7;201
2013;28/01/2013;14:00;3.1;204
2013;28/01/2013;15:00;2.7;197
2013;28/01/2013;16:00;0.9;221
2013;28/01/2013;17:00;0.9;211
2013;28/01/2013;18:00;1.7;311
2013;28/01/2013;19:00;1.9;299
2013;28/01/2013;20:00;1.6;315
2013;28/01/2013;21:00;1.3;307
2013;28/01/2013;22:00;2.3;301
2013;28/01/2013;23:00;2.2;321
2013;29/01/2013;00:00;3.4;329
2013;29/01/2013;01:00;6.1;339
2013;29/01/2013;02:00;5.6;336
2013;29/01/2013;03:00;5.8;334
2013;29/01/2013;04:00;8;339
2013;29/01/2013;05:00;12.1;353
2013;29/01/2013;06:00;11.7;7
2013;29/01/2013;07:00;11.4;10
2013;29/01/2013;08:00;6.3;335
2013;29/01/2013;09:00;6.5;341
2013;29/01/2013;10:00;10.6;358
2013;29/01/2013;11:00;9.4;357
2013;29/01/2013;12:00;9;357
2013;29/01/2013;13:00;7.5;357
2013;29/01/2013;14:00;8.8;350
2013;29/01/2013;15:00;7.9;349
2013;29/01/2013;16:00;5;346
2013;29/01/2013;17:00;2.6;329
2013;29/01/2013;18:00;2.6;290
2013;29/01/2013;19:00;2.4;299
2013;29/01/2013;20:00;1.9;310
2013;29/01/2013;21:00;1.8;278
2013;29/01/2013;22:00;1.2;251
2013;29/01/2013;23:00;2.4;251
2013;30/01/2013;00:00;2.3;249
2013;30/01/2013;01:00;1.7;263
2013;30/01/2013;02:00;1.6;309
2013;30/01/2013;03:00;2.4;316
2013;30/01/2013;04:00;2.1;314
2013;30/01/2013;05:00;0.7;284
2013;30/01/2013;06:00;1.1;301
2013;30/01/2013;07:00;0.8;266
2013;30/01/2013;08:00;1.5;308
2013;30/01/2013;09:00;0.9;338
2013;30/01/2013;10:00;1.7;73
2013;30/01/2013;11:00;1.8;101
2013;30/01/2013;12:00;2.4;79
2013;30/01/2013;13:00;1.5;74
2013;30/01/2013;14:00;1.7;95
2013;30/01/2013;15:00;1.3;116
2013;30/01/2013;16:00;1.7;91
2013;30/01/2013;17:00;0.2;
2013;30/01/2013;18:00;0.5;218
2013;30/01/2013;19:00;1;246
2013;30/01/2013;20:00;0.4;295
2013;30/01/2013;21:00;0.6;249
2013;30/01/2013;22:00;1.7;322
2013;30/01/2013;23:00;2.1;318
2013;31/01/2013;00:00;1.5;295
2013;31/01/2013;01:00;0.8;267
2013;31/01/2013;02:00;1.1;315
2013;31/01/2013;03:00;0.5;352
2013;31/01/2013;04:00;2.4;317
2013;31/01/2013;05:00;2.2;290
2013;31/01/2013;06:00;1.1;288
2013;31/01/2013;07:00;1.9;322
2013;31/01/2013;08:00;2.2;306
2013;31/01/2013;09:00;1.8;303
2013;31/01/2013;10:00;1.5;1
2013;31/01/2013;11:00;9.5;20
2013;31/01/2013;12:00;8.7;10
2013;31/01/2013;13:00;10.6;358
2013;31/01/2013;14:00;8.4;355
2013;31/01/2013;15:00;6.4;354
2013;31/01/2013;16:00;3.9;346
2013;31/01/2013;17:00;2.3;332
2013;31/01/2013;18:00;1.9;326
2013;31/01/2013;19:00;1.3;268
2013;31/01/2013;20:00;0.3;255
2013;31/01/2013;21:00;1.7;245
2013;31/01/2013;22:00;0.7;207
2013;31/01/2013;23:00;0.7;42
2013;01/02/2013;00:00;1.3;320
2013;01/02/2013;01:00;1.1;291
2013;01/02/2013;02:00;1.2;264
2013;01/02/2013;03:00;1.5;294
2013;01/02/2013;04:00;2;296
2013;01/02/2013;05:00;5.2;234
2013;01/02/2013;06:00;5.1;236
2013;01/02/2013;07:00;3.6;235
2013;01/02/2013;08:00;2.1;10
2013;01/02/2013;09:00;1.1;18
2013;01/02/2013;10:00;1.5;133
2013;01/02/2013;11:00;1.6;178
2013;01/02/2013;12:00;2.2;112
2013;01/02/2013;13:00;2.7;93
2013;01/02/2013;14:00;3.6;81
2013;01/02/2013;15:00;1.3;348
2013;01/02/2013;16:00;1.6;298
2013;01/02/2013;17:00;2.1;289
2013;01/02/2013;18:00;3.3;242
2013;01/02/2013;19:00;3.3;227
2013;01/02/2013;20:00;4.1;240
2013;01/02/2013;21:00;4.9;229
2013;01/02/2013;22:00;5.6;229
2013;01/02/2013;23:00;6.6;231
2013;02/02/2013;00:00;8.2;218
2013;02/02/2013;01:00;8.5;219
2013;02/02/2013;02:00;8;219
2013;02/02/2013;03:00;6.6;217
2013;02/02/2013;04:00;5.7;226
2013;02/02/2013;05:00;7.3;221
2013;02/02/2013;06:00;11.9;207
2013;02/02/2013;07:00;8.3;209
2013;02/02/2013;08:00;8.9;209